Location: Hope
(40.9110°N, 74.9680°W)
Time: 02:33:12
(UTC-04:00)

OTV 5 (USA 277) - Visible Passes

Search period start: 27 April 2018 00:00
Search period end: 07 May 2018 00:00
Orbit: 308 x 325 km, 54.5° (Epoch: 25 April)

Date Brightness Start Highest point End Pass type
(mag) Time Alt. Az. Time Alt. Az. Time Alt. Az.
28 Apr ? 22:40:17 10° NNW 22:40:30 11° NNW 22:40:30 11° NNW visible
29 Apr ? 22:54:11 10° NNW 22:54:14 10° NNW 22:54:14 10° NNW visible
30 Apr ? 21:35:09 10° N 21:36:28 13° NNE 21:37:07 12° NE visible
01 May ? 21:48:47 10° NNW 21:50:52 23° NNE 21:50:52 23° NNE visible
02 May ? 22:02:49 10° NW 22:04:37 35° NNW 22:04:37 35° NNW visible
03 May ? 20:43:26 10° NNW 20:45:18 17° NNE 20:47:09 10° ENE visible
03 May ? 22:17:11 10° WNW 22:18:25 22° WNW 22:18:25 22° WNW visible
04 May ? 20:57:15 10° NNW 20:59:47 34° NE 21:01:23 18° E visible
05 May ? 21:11:23 10° NW 21:14:05 80° SW 21:15:14 30° SE visible
06 May ? 21:25:57 10° WNW 21:28:15 24° SW 21:29:10 20° SSW visible
